sat.trackr.live / text

‹ back to catalog

ONEWEB-0320

NORAD 49190 · 2021-083E

PAYLOAD ACTIVE UNKNOWN

§ Identity

Operator
Country
UK
Launch date
2021-09-14
Launch site
TYMSC
Launch vehicle
Mass (kg)
RCS (m²)

Purposes: comms

External: N2YO · Heavens-Above · Gunter

§ Orbital elements

Epoch: 2026-05-25T02:17:50.936352Z

Period
109.20 min
Inclination
87.9160°
Eccentricity
0.0001787
Mean motion
13.18687180 rev/d
Perigee alt
1,188.4 km
Apogee alt
1,191.1 km
Semi-major
7,567.9 km
B*
5.0313e-5
RAAN
340.0595°
Arg perigee
87.9606°
Mean anomaly
272.1731°
Rev number
22,693

§ Raw data

ONEWEB-03201 49190U 21083E   26145.09572843  .00000033  00000+0  50313-4 0  99942 49190  87.9160 340.0595 0001787  87.9606 272.1731 13.18687180226939

JSON: /api/v1/satellites/49190 · /tle

For live sub-satellite position, see the globe view (requires WebGL).

§ Visibility from observer

Set your observer location to see the next 7 days of passes ≥ 10°. The values pass through the URL so the page stays shareable.

No JS? Fill the form by hand. The geolocation button needs JavaScript.